This is the latest recevied weather packets stored in our database for station/object W4KAB. If no packets are shown the sender has not sent any weather packets the latest 10 day(s).
| Time | Temp. | Humidity | Pressure | Rain* | Wind** | Luminosity | Snow |
|---|---|---|---|---|---|---|---|
| 1777925251 | 26.67° C | 35% | 1015.1 hPa | 0 mm | - | 579 W/m² | - |
| 1777924946 | 26.67° C | 36% | 1014.9 hPa | 0 mm | - | 562 W/m² | - |
| 1777924643 | 26.11° C | 38% | 1015.3 hPa | 0 mm | - | 600 W/m² | - |
| 1777924339 | 26.67° C | 36% | 1015.4 hPa | 0 mm | - | 537 W/m² | - |
| 1777924036 | 26.67° C | 36% | 1015.5 hPa | 0 mm | - | 646 W/m² | - |
| 1777923732 | 26.67° C | 36% | 1015.1 hPa | 0 mm | - | 571 W/m² | - |
| 1777923429 | 26.11° C | 38% | 1015.5 hPa | 0 mm | - | 640 W/m² | - |
| 1777923126 | 26.11° C | 37% | 1015.7 hPa | 0 mm | - | 591 W/m² | - |
| 1777922824 | 26.11° C | 36% | 1015.8 hPa | 0 mm | - | 684 W/m² | - |
| 1777922522 | 26.11° C | 38% | 1015.8 hPa | 0 mm | - | 688 W/m² | - |
| 1777922221 | 26.67° C | 36% | 1015.8 hPa | 0 mm | - | 672 W/m² | - |
| 1777921916 | 26.11° C | 37% | 1015.9 hPa | 0 mm | - | 684 W/m² | - |
| 1777921612 | 25.56° C | 36% | 1015.9 hPa | 0 mm | - | 685 W/m² | - |
| 1777921309 | 25.56° C | 38% | 1016 hPa | 0 mm | - | 684 W/m² | - |
| 1777921005 | 26.11° C | 41% | 1016 hPa | 0 mm | - | 570 W/m² | - |
| 1777920702 | 26.11° C | 40% | 1016.3 hPa | 0 mm | - | 697 W/m² | - |
| 1777920398 | 25.56° C | 39% | 1016 hPa | 0 mm | - | 739 W/m² | - |
| 1777920093 | 26.11° C | 41% | 1016 hPa | 0 mm | - | 724 W/m² | - |
| 1777919791 | 25.56° C | 36% | 1016.1 hPa | 0 mm | - | 736 W/m² | - |
| 1777919488 | 25.56° C | 37% | 1016.3 hPa | 0 mm | - | 766 W/m² | - |
| 1777919186 | 25° C | 39% | 1016.7 hPa | 0 mm | - | 744 W/m² | - |
| 1777918883 | 25° C | 39% | 1016.3 hPa | 0 mm | - | 730 W/m² | - |
| 1777918580 | 25° C | 39% | 1016.6 hPa | 0 mm | - | 722 W/m² | - |
| 1777918278 | 25.56° C | 38% | 1016.7 hPa | 0 mm | - | 716 W/m² | - |
| 1777917977 | 25° C | 40% | 1016.8 hPa | 0 mm | - | 716 W/m² | - |
* Rain latest hour (hover to see other rain measurements)
** Current wind speed in m/s (hover to see current wind gust speed)